sat.trackr.live / text

‹ back to catalog

STARLINK-3599

NORAD 51814 · 2022-017AY

PAYLOAD ACTIVE UNKNOWN

§ Identity

Operator
Country
US
Launch date
2022-02-25
Launch site
AFWTR
Launch vehicle
Mass (kg)
RCS (m²)

Purposes: comms

External: N2YO · Heavens-Above · Gunter

§ Orbital elements

Epoch: 2026-09-20T02:58:07.291200Z

Period
93.79 min
Inclination
53.1604°
Eccentricity
0.0001229
Mean motion
15.35395295 rev/d
Perigee alt
458.9 km
Apogee alt
460.6 km
Semi-major
6,837.9 km
B*
1.6802e-5
RAAN
165.9384°
Arg perigee
93.7917°
Mean anomaly
266.3226°
Rev number
25,357

§ Raw data

STARLINK-35991 51814U 22017AY  26263.12369550  .00000206  00000+0  16802-4 0  99992 51814  53.1604 165.9384 0001229  93.7917 266.3226 15.35395295253572

JSON: /api/v1/satellites/51814 · /tle

For live sub-satellite position, see the globe view (requires WebGL).

§ Visibility from observer

Set your observer location to see the next 7 days of passes ≥ 10°. The values pass through the URL so the page stays shareable.

No JS? Fill the form by hand. The geolocation button needs JavaScript.